GW4747 Weather Reports


time (UTC)temp
C
wind
direction
speed
KPH
gust
KPH
rain 1hr
cm
rain 24hr
cm
rain mn
cm
humidity
%
barometer
mb
20260507161520 16 336 0.0 3.2 0.00 0.00 0.00 80 1017.4
20260507160022 16 318 0.0 3.2 0.00 0.00 0.00 81 1017.5
20260507154521 16 325 0.0 3.2 0.00 0.00 0.00 82 1017.4
20260507153020 16 338 0.0 0.0 0.00 0.00 0.00 83 1017.4
20260507151513 15 360 0.0 0.0 0.00 0.00 0.00 84 1017.4
20260507150020 15 42 0.0 0.0 0.00 0.00 0.00 83 1017.3
20260507144523 15 42 0.0 0.0 0.00 0.00 0.00 83 1017.2
20260507143025 15 10 0.0 0.0 0.00 0.00 0.00 84 1017.2
20260507141522 15 14 0.0 0.0 0.00 0.00 0.00 85 1017.0
20260507140018 14 42 0.0 0.0 0.00 0.00 0.00 85 1016.8
20260507134520 14 32 0.0 3.2 0.00 0.00 0.00 86 1016.7
20260507133027 13 11 0.0 0.0 0.00 0.00 0.00 87 1016.6
20260507131508 13 11 0.0 0.0 0.00 0.00 0.00 88 1016.7
20260507130002 13 9 0.0 0.0 0.00 0.00 0.00 88 1016.6
20260507124508 13 5 0.0 0.0 0.00 0.00 0.00 88 1016.5
20260507123004 13 5 0.0 0.0 0.00 0.00 0.00 88 1016.4
20260507121510 13 5 0.0 0.0 0.00 0.00 0.00 88 1016.4
20260507120014 13 9 0.0 0.0 0.00 0.00 0.00 88 1016.4
20260507114506 13 337 0.0 0.0 0.00 0.00 0.00 89 1016.4
20260507113011 13 337 0.0 0.0 0.00 0.00 0.00 89 1016.4
20260507111509 13 337 0.0 0.0 0.00 0.00 0.00 89 1016.5
20260507110011 13 338 0.0 0.0 0.00 0.00 0.00 89 1016.5
20260507104513 13 337 0.0 0.0 0.00 0.00 0.00 89 1016.6
20260507103004 13 337 0.0 0.0 0.00 0.00 0.00 88 1016.7
20260507101504 13 337 0.0 0.0 0.00 0.00 0.00 88 1016.8
20260507100012 13 337 0.0 0.0 0.00 0.00 0.00 88 1016.7
20260507094512 13 337 0.0 0.0 0.00 0.00 0.00 88 1017.0
20260507093021 13 337 0.0 0.0 0.00 0.00 0.00 88 1017.0
20260507091503 14 337 0.0 0.0 0.00 0.00 0.00 88 1017.2
20260507090011 14 338 0.0 0.0 0.00 0.00 0.00 88 1017.3
20260507084517 14 337 0.0 0.0 0.00 0.00 0.00 88 1017.5
20260507083015 14 337 0.0 0.0 0.00 0.00 0.00 88 1017.6
20260507081524 14 337 0.0 0.0 0.00 0.00 0.00 88 1017.7
20260507080007 14 337 0.0 0.0 0.00 0.00 0.00 87 1017.8
20260507074508 15 337 0.0 0.0 0.00 0.00 0.00 86 1017.9
20260507073014 15 337 0.0 0.0 0.00 0.00 0.00 87 1017.8
20260507071518 15 337 0.0 0.0 0.00 0.00 0.00 86 1017.7
20260507070022 15 314 0.0 0.0 0.00 0.00 0.00 87 1017.9
20260507064506 15 273 0.0 0.0 0.00 0.00 0.00 87 1018.0
20260507063007 15 273 0.0 0.0 0.00 0.00 0.00 86 1018.1
20260507061516 15 273 0.0 0.0 0.00 0.00 0.00 86 1018.1
20260507060028 15 273 0.0 0.0 0.00 0.00 0.00 85 1018.1
20260507054522 15 273 0.0 0.0 0.00 0.00 0.00 84 1018.0
20260507053010 16 273 0.0 0.0 0.00 0.00 0.00 84 1018.0
20260507051514 16 273 0.0 0.0 0.00 0.00 0.00 83 1018.0
20260507050017 16 273 0.0 0.0 0.00 0.00 0.00 82 1018.0
20260507044544 16 273 0.0 0.0 0.00 0.00 0.00 80 1017.9
20260507043024 16 273 0.0 0.0 0.00 0.00 0.00 80 1017.8
20260507041510 16 273 0.0 0.0 0.00 0.00 0.00 79 1017.8
20260507040017 16 273 0.0 0.0 0.00 0.00 0.00 78 1017.8
20260507034522 16 247 0.0 0.0 0.00 0.00 0.00 77 1017.6
20260507033025 16 246 0.0 0.0 0.00 0.00 0.00 77 1017.4
20260507031525 17 300 0.0 0.0 0.00 0.00 0.00 76 1017.2
20260507030013 17 248 0.0 0.0 0.00 0.00 0.00 75 1017.1
20260507024520 17 259 0.0 0.0 0.00 0.00 0.00 72 1017.0
20260507023025 17 250 0.0 0.0 0.00 0.00 0.00 70 1016.9
20260507021523 18 267 0.0 0.0 0.00 0.00 0.00 69 1016.8
20260507020037 18 263 0.0 0.0 0.00 0.00 0.00 67 1016.7
20260507014517 19 261 0.0 3.2 0.00 0.00 0.00 63 1016.7
20260507013019 19 295 0.0 0.0 0.00 0.00 0.00 61 1016.6
20260507011522 20 234 0.0 3.2 0.00 0.00 0.00 61 1016.7
20260507010029 20 259 0.0 1.6 0.00 0.00 0.00 59 1016.6
20260507004532 20 270 0.0 1.6 0.00 0.00 0.00 58 1016.5
20260507003026 20 254 0.0 0.0 0.00 0.00 0.00 57 1016.6
20260507001534 20 179 0.0 1.6 0.00 0.00 0.00 56 1016.5
20260507000024 20 263 0.0 1.6 0.00 0.00 0.00 57 1016.4
20260506234526 20 253 0.0 3.2 0.00 0.00 0.00 60 1016.4
20260506233026 20 280 0.0 3.2 0.00 0.00 0.00 58 1016.3
20260506231519 21 250 0.0 3.2 0.00 0.00 0.00 58 1016.3
20260506230025 21 257 0.0 3.2 0.00 0.00 0.00 57 1016.3
20260506224524 21 226 0.0 3.2 0.00 0.00 0.00 59 1016.4
20260506223026 20 289 0.0 0.0 0.00 0.00 0.00 63 1016.5
20260506221519 20 280 0.0 3.2 0.00 0.00 0.00 61 1016.7
20260506220026 21 260 0.0 3.2 0.00 0.00 0.00 60 1016.9
20260506214508 20 269 0.0 0.0 0.00 0.00 0.00 61 1017.1
20260506213014 20 252 0.0 3.2 0.00 0.00 0.00 61 1017.2
20260506211519 20 275 0.0 3.2 0.00 0.00 0.00 60 1017.3
20260506210024 21 274 0.0 3.2 0.00 0.00 0.00 60 1017.4
20260506204524 20 257 0.0 3.2 0.00 0.00 0.00 61 1017.5
20260506203009 20 266 0.0 3.2 0.00 0.00 0.00 61 1017.5
20260506201515 21 261 0.0 3.2 0.00 0.00 0.00 59 1017.5
20260506200020 21 269 0.0 4.8 0.00 0.00 0.00 60 1017.6
20260506194526 21 275 0.0 1.6 0.00 0.00 0.00 57 1017.7
20260506193025 21 286 0.0 3.2 0.00 0.00 0.00 58 1017.9
20260506191513 21 263 0.0 3.2 0.00 0.00 0.00 57 1018.0
20260506190019 22 257 0.0 3.2 0.00 0.00 0.00 56 1018.0
20260506184528 21 253 0.0 0.0 0.00 0.00 0.00 56 1018.0
20260506183024 21 150 0.0 3.2 0.00 0.00 0.00 54 1018.1
20260506181530 20 242 0.0 3.2 0.00 0.00 0.00 58 1018.3
20260506180024 21 242 0.0 0.0 0.00 0.00 0.00 57 1018.5
20260506174522 20 274 0.0 1.6 0.00 0.00 0.00 56 1018.5
20260506173028 19 273 0.0 0.0 0.00 0.00 0.00 59 1018.7
20260506171525 18 299 0.0 0.0 0.00 0.00 0.00 60 1018.9
20260506170035 19 282 0.0 3.2 0.00 0.00 0.00 61 1018.9
20260506164520 19 343 0.0 3.2 0.00 0.00 0.00 62 1018.7
20260506163024 18 317 0.0 3.2 0.00 0.00 0.00 63 1018.9